Location: Prescott
(34.5400°N, 112.4680°W)
Time: 15:23:48
(UTC-07:00)

Amateur Radio Satellites - All Passes

Search period start: 29 March 2015 14:53
Search period end: 30 March 2015 14:53
Location: Prescott, 34.5400°N, 112.4680°W

Satellite Date Start Highest point End Downlink Frequencies (MHz)
Time Altitude Azimuth
ITAMSAT 1 29 Mar 15:01:33 15:06:02 27° 265° (W) 15:10:24 435.822/435.867
SRMSAT 29 Mar 15:07:24 15:10:34 15° 169° (S) 15:13:47 437.500
SWISSCUBE 29 Mar 15:09:19 15:12:58 21° 291° (WNW) 15:16:27 437.505
BEESAT 29 Mar 15:12:15 15:15:55 22° 291° (WNW) 15:19:26 436.000
AIST 1 29 Mar 15:13:10 15:17:28 71° 82° (E) 15:21:43
KKS-1 29 Mar 15:17:33 15:22:02 84° 106° (ESE) 15:26:28 437.445
PCSat 29 Mar 15:19:22 15:24:17 34° 303° (WNW) 15:29:11 145.827
O/OREOS (USA 219) 29 Mar 15:22:08 15:24:33 14° 260° (W) 15:26:43 437.305
JAS-2 29 Mar 15:40:04 15:46:40 60° 72° (ENE) 15:54:04 435.910
STARS 29 Mar 15:49:19 15:53:42 66° 284° (WNW) 15:58:05 437.465
Gurwin Techsat 1B 29 Mar 15:54:43 15:56:22 11° 271° (W) 15:57:35 435.225
JUGNU 29 Mar 15:55:28 15:59:35 19° 183° (S) 16:03:40 437.505
YUBILEINY 29 Mar 16:09:31 16:12:28 11° 300° (WNW) 16:14:36 435.215
HORYU 2 29 Mar 16:27:01 16:29:55 16° 267° (W) 16:32:38 437.375
AO-7 29 Mar 16:34:29 16:42:25 47° 260° (W) 16:50:18 29.400- 29.500
RS-15 29 Mar 16:43:36 16:47:29 13° 101° (E) 16:52:29 29.354- 29.394
MOZHAYETS 4 29 Mar 16:53:41 16:58:11 49° 99° (E) 17:02:41
SRMSAT 29 Mar 16:54:58 16:59:04 19° 179° (S) 17:03:09 437.500
CUTE-I 29 Mar 17:23:28 17:28:13 34° 71° (ENE) 17:33:03 437.470
Cubesat XI-IV 29 Mar 17:23:42 17:28:28 35° 71° (ENE) 17:33:20 437.490
JAS-2 29 Mar 17:27:07 17:32:20 22° 272° (W) 17:37:40 435.910
AUBIESAT-1 29 Mar 17:41:33 17:46:12 47° 103° (ESE) 17:50:42 437.475
JUGNU 29 Mar 17:44:59 17:47:55 14° 192° (SSW) 17:50:47 437.505
SO-50 29 Mar 17:52:14 17:56:14 32° 113° (ESE) 18:00:26 436.795
BEESAT 3 29 Mar 18:04:50 18:06:38 13° 47° (NE) 18:08:36 437.485
M-CUBED/EXP-1 PRIME 29 Mar 18:06:03 18:10:56 82° 287° (WNW) 18:15:39 437.505
GONETS M04 29 Mar 18:23:51 18:31:11 33° 87° (E) 18:38:47
MOZHAYETS 4 29 Mar 18:32:30 18:35:03 14° 292° (WNW) 18:37:21
CUBESAT XI-V 29 Mar 18:41:25 18:45:56 51° 99° (E) 18:50:25 437.345
SRMSAT 29 Mar 18:44:00 18:47:34 16° 189° (S) 18:51:05 437.500
RS-15 29 Mar 18:47:34 18:58:25 78° 116° (ESE) 19:09:26 29.354- 29.394
CUTE-I 29 Mar 19:03:54 19:08:22 25° 265° (W) 19:12:42 437.470
Cubesat XI-IV 29 Mar 19:04:13 19:08:39 25° 265° (W) 19:12:57 437.490
BEESAT 2 29 Mar 19:04:22 19:08:19 44° 57° (ENE) 19:12:14 435.950
AUBIESAT-1 29 Mar 19:17:25 19:20:38 17° 297° (WNW) 19:23:38 437.475
GOMX 1 29 Mar 19:18:27 19:20:14 13° 69° (ENE) 19:22:13 467.674
PRISM 29 Mar 19:23:16 19:27:24 62° 285° (WNW) 19:31:28 437.425
SO-50 29 Mar 19:32:57 19:36:49 25° 309° (NW) 19:40:44 436.795
STRAND 1 29 Mar 19:35:27 19:40:36 85° 281° (W) 19:45:41 437.568
BEESAT 3 29 Mar 19:41:05 19:45:06 54° 244° (WSW) 19:49:02 437.485
SEEDS 29 Mar 19:44:08 19:46:40 16° 70° (ENE) 19:49:22 437.485
HO-68 29 Mar 19:59:04 20:05:55 52° 70° (ENE) 20:12:52 435.675
COMPASS 1 29 Mar 20:05:16 20:08:31 23° 71° (ENE) 20:11:54 437.405
BRITE-PL 29 Mar 20:08:23 20:13:13 80° 77° (ENE) 20:17:41 437.365/2234.400
AIST 2 29 Mar 20:18:03 20:22:18 82° 242° (WSW) 20:26:27 435.215
CINEMA 3 29 Mar 20:18:52 20:21:47 19° 71° (ENE) 20:24:47 145.822/145.860
GONETS M04 29 Mar 20:19:34 20:27:49 46° 284° (WNW) 20:36:04
CUBESAT XI-V 29 Mar 20:20:41 20:22:59 13° 293° (WNW) 20:25:03 437.345
CUBEBUG 2 29 Mar 20:29:37 20:31:22 13° 69° (ENE) 20:33:19 437.445
DANDE 29 Mar 20:30:51 20:33:47 29° 97° (E) 20:36:19 436.750
CANX-2 29 Mar 20:35:22 20:39:35 87° 258° (WSW) 20:43:51 2200.000
DOVE 4 29 Mar 20:40:36 20:44:59 76° 77° (ENE) 20:49:12 437.250
BEESAT 2 29 Mar 20:44:10 20:46:07 13° 251° (WSW) 20:47:50 435.950
CUTE 1.7 + AOD 2 29 Mar 20:49:17 20:53:29 65° 259° (W) 20:57:43 437.475
DELFI C3 29 Mar 20:50:35 20:53:44 23° 72° (ENE) 20:56:59 145.870
GOMX 1 29 Mar 20:53:41 20:58:07 48° 261° (W) 21:02:18 467.674
RS-15 29 Mar 21:02:51 21:12:06 29° 320° (NW) 21:21:15 29.354- 29.394
UKube-1 29 Mar 21:12:23 21:15:35 21° 70° (ENE) 21:18:56 .
AAUSAT CUBESAT 2 29 Mar 21:12:23 21:16:29 59° 260° (W) 21:20:38 437.432
SEEDS 29 Mar 21:18:23 21:22:14 34° 263° (W) 21:26:05 437.485
HUMSAT D 29 Mar 21:18:54 21:21:12 15° 69° (ENE) 21:23:40 437.325/437.525
CUSAT 1 29 Mar 21:22:28 21:24:44 19° 282° (WNW) 21:26:46 437.405
DX 1 29 Mar 21:22:32 21:26:17 29° 72° (ENE) 21:30:06 434.975-435.025
ISS 29 Mar 21:35:41 21:38:45 40° 133° (SE) 21:41:50 145.825
Oscar 11 29 Mar 21:40:37 21:44:53 63° 260° (W) 21:49:10 145.826/435.025
COMPASS 1 29 Mar 21:40:47 21:44:10 23° 266° (W) 21:47:29 437.405
HO-68 29 Mar 21:48:10 21:53:59 25° 266° (W) 21:59:36 435.675
FUNcube-1 29 Mar 21:52:09 21:56:17 84° 79° (E) 22:00:27 145.935
CINEMA 3 29 Mar 21:55:13 21:58:53 27° 264° (W) 22:02:25 145.822/145.860
UWE-3 29 Mar 21:57:38 22:01:44 63° 259° (W) 22:05:52 435.000/436.395/437.385
50 SAT 29 Mar 21:59:11 22:02:31 28° 73° (ENE) 22:05:57 437.505
CUBEBUG 2 29 Mar 22:03:49 22:07:46 42° 262° (W) 22:11:42 437.445
VELOX 1 29 Mar 22:03:57 22:07:59 35° 73° (ENE) 22:12:03 145.980
CUBEBUG 1 29 Mar 22:04:21 22:06:52 16° 69° (ENE) 22:09:34 437.445
ZACube-1 29 Mar 22:05:15 22:09:21 65° 259° (W) 22:13:29 437.345
AISAT 29 Mar 22:08:40 22:12:51 42° 73° (ENE) 22:17:03 437.250
UNISAT 6 29 Mar 22:15:12 22:18:39 21° 94° (E) 22:22:15 437.425
TIGRISAT 29 Mar 22:24:56 22:28:45 26° 95° (E) 22:32:44 435.000
DELFI C3 29 Mar 22:25:37 22:28:51 22° 266° (W) 22:32:01 145.870
PCSat 29 Mar 22:29:09 22:31:15 12° 45° (NE) 22:33:38 145.827
ESTCUBE 1 29 Mar 22:39:31 22:43:51 45° 74° (ENE) 22:48:12 437.505/2401.250
UKube-1 29 Mar 22:47:53 22:51:37 27° 263° (W) 22:55:19 .
QB50P1 29 Mar 22:48:09 22:51:28 23° 95° (E) 22:54:52 145.935-145.965
DUCHIFAT 1 29 Mar 22:49:44 22:53:03 23° 95° (E) 22:56:27 145.980
HUMSAT D 29 Mar 22:52:58 22:56:43 34° 263° (W) 23:00:28 437.325/437.525
ANTELSAT 29 Mar 22:54:55 22:59:29 61° 101° (E) 23:04:08 437.575/2403.000
DX 1 29 Mar 22:59:19 23:02:35 20° 266° (W) 23:05:43 434.975-435.025
QB50P2 29 Mar 23:02:42 23:06:35 35° 97° (E) 23:10:30 145.880/145.840
ISS 29 Mar 23:12:55 23:15:18 18° 329° (NNW) 23:17:39 145.825
RS-15 29 Mar 23:26:42 23:30:03 11° 354° (N) 23:33:17 29.354- 29.394
BUGSAT 1 29 Mar 23:27:55 23:31:49 46° 100° (E) 23:35:42 437.445
POPSAT HIP 1 29 Mar 23:31:05 23:35:20 78° 101° (E) 23:39:34 437.405
TISAT 1 29 Mar 23:33:59 23:37:44 32° 73° (ENE) 23:41:31 437.305
50 SAT 29 Mar 23:35:02 23:37:32 16° 267° (W) 23:39:53 437.505
CUBEBUG 1 29 Mar 23:38:48 23:42:58 40° 262° (W) 23:47:06 437.445
NANOSAT C BR1 29 Mar 23:41:31 23:45:45 78° 283° (WNW) 23:49:57 145.865
VELOX 1 29 Mar 23:41:43 23:44:42 17° 267° (W) 23:47:30 145.980
SPROUT 29 Mar 23:45:45 23:49:56 54° 75° (ENE) 23:54:09 437.525
POLYITAN 1 29 Mar 23:46:13 23:50:26 66° 285° (WNW) 23:54:40 437.675
AISAT 29 Mar 23:47:11 23:49:42 14° 268° (W) 23:51:59 437.250
UNISAT 6 29 Mar 23:51:24 23:55:28 31° 288° (WNW) 23:59:33 437.425
TIGRISAT 30 Mar 00:01:38 00:05:26 25° 289° (WNW) 00:09:12 435.000
PCSat 30 Mar 00:10:04 00:15:32 90° 213° (SSW) 00:20:57 145.827
ESTCUBE 1 30 Mar 00:18:31 00:21:00 14° 269° (W) 00:23:15 437.505/2401.250
YUBILEINY 30 Mar 00:19:45 00:28:10 49° 77° (ENE) 00:36:36 435.215
QB50P1 30 Mar 00:23:51 00:27:18 24° 288° (WNW) 00:30:40 145.935-145.965
DUCHIFAT 1 30 Mar 00:25:25 00:28:50 24° 289° (WNW) 00:32:10 145.980
ANTELSAT 30 Mar 00:34:05 00:35:51 12° 293° (WNW) 00:37:22 437.575/2403.000
SWISSCUBE 30 Mar 00:34:28 00:38:26 27° 70° (ENE) 00:42:30 437.505
BEESAT 30 Mar 00:37:23 00:41:18 26° 70° (ENE) 00:45:20 436.000
QB50P2 30 Mar 00:39:32 00:42:15 16° 291° (WNW) 00:44:49 145.880/145.840
BUGSAT 1 30 Mar 01:05:41 01:06:56 11° 292° (WNW) 01:07:58 437.445
TISAT 1 30 Mar 01:10:50 01:13:38 17° 267° (W) 01:16:17 437.305
ITUPSAT 1 30 Mar 01:23:38 01:28:26 83° 78° (ENE) 01:33:18 437.325
ITAMSAT 1 30 Mar 01:39:53 01:42:16 14° 91° (E) 01:44:58 435.822/435.867
RS-15 30 Mar 01:41:33 01:49:04 20° 30° (NNE) 01:57:14 29.354- 29.394
Oscar 19 30 Mar 02:10:05 02:15:17 80° 283° (WNW) 02:20:28 437.125/150
SWISSCUBE 30 Mar 02:12:11 02:16:15 26° 265° (W) 02:20:15 437.505
KKS-1 30 Mar 02:12:17 02:16:32 48° 74° (ENE) 02:20:50 437.445
BEESAT 30 Mar 02:15:01 02:19:05 27° 264° (W) 02:23:06 436.000
YUBILEINY 30 Mar 02:17:11 02:24:43 31° 274° (W) 02:31:56 435.215
SO-50 30 Mar 02:27:48 02:30:30 15° 45° (NE) 02:33:23 436.795
Gurwin Techsat 1B 30 Mar 02:30:33 02:35:27 38° 97° (E) 02:40:24 435.225
STARS 30 Mar 02:42:39 02:47:00 68° 75° (ENE) 02:51:21 437.465
AO-7 30 Mar 02:52:04 02:53:27 11° 87° (E) 02:55:43 29.400- 29.500
ITAMSAT 1 30 Mar 03:17:09 03:22:14 58° 286° (WNW) 03:27:17 435.822/435.867
VERMONT LUNAR 30 Mar 03:25:57 03:28:10 17° 144° (SE) 03:30:27 437.305
AIST 1 30 Mar 03:38:46 03:43:01 49° 94° (E) 03:47:18
O/OREOS (USA 219) 30 Mar 03:49:23 03:53:58 80° 290° (WNW) 03:58:35 437.305
KKS-1 30 Mar 03:51:35 03:53:31 12° 269° (W) 03:55:12 437.445
MOZHAYETS 4 30 Mar 03:52:25 03:56:25 31° 72° (ENE) 04:00:32
RS-15 30 Mar 03:52:55 04:04:24 66° 57° (ENE) 04:16:24 29.354- 29.394
SO-50 30 Mar 04:06:42 04:11:38 70° 243° (WSW) 04:16:29 436.795
ISS 30 Mar 04:06:53 04:08:32 13° 28° (NNE) 04:10:16 145.825
Gurwin Techsat 1B 30 Mar 04:11:05 04:15:14 23° 292° (WNW) 04:19:13 435.225
PHONESAT 2.4 30 Mar 04:12:16 04:14:34 17° 144° (SE) 04:16:55 2401.200-2431.200
HORYU 2 30 Mar 04:19:55 04:24:24 65° 285° (WNW) 04:28:52 437.375
AUBIESAT-1 30 Mar 04:26:47 04:30:19 32° 67° (ENE) 04:34:11 437.475
JAS-2 30 Mar 04:38:38 04:46:20 74° 101° (E) 04:53:17 435.910
AO-7 30 Mar 04:39:25 04:47:43 76° 105° (ESE) 04:56:02 29.400- 29.500
GONETS M04 30 Mar 04:40:37 04:43:37 12° 61° (ENE) 04:47:25
M-CUBED/EXP-1 PRIME 30 Mar 04:51:26 04:55:21 74° 73° (ENE) 04:59:40 437.505
VERMONT LUNAR 30 Mar 05:02:15 05:05:36 80° 336° (NNW) 05:08:57 437.305
AIST 1 30 Mar 05:19:32 05:21:05 11° 290° (WNW) 05:22:20
MOZHAYETS 4 30 Mar 05:30:09 05:33:42 21° 266° (W) 05:37:10
CUBESAT XI-V 30 Mar 05:41:27 05:45:39 34° 73° (ENE) 05:49:56 437.345
ISS 30 Mar 05:42:04 05:45:17 70° 225° (SW) 05:48:28 145.825
CUTE-I 30 Mar 05:45:01 05:48:24 18° 92° (E) 05:52:00 437.470
Cubesat XI-IV 30 Mar 05:45:24 05:48:51 18° 92° (E) 05:52:31 437.490
PHONESAT 2.4 30 Mar 05:49:05 05:52:37 86° 334° (NNW) 05:56:09 2401.200-2431.200
AUBIESAT-1 30 Mar 06:02:36 06:05:19 17° 264° (W) 06:08:02 437.475
RS-15 30 Mar 06:06:22 06:16:19 32° 253° (WSW) 06:26:07 29.354- 29.394
PRISM 30 Mar 06:09:48 06:13:56 58° 75° (ENE) 06:18:05 437.425
JAS-2 30 Mar 06:25:10 06:30:33 20° 298° (WNW) 06:35:22 435.910
GONETS M04 30 Mar 06:33:25 06:42:16 77° 82° (E) 06:51:08
AO-7 30 Mar 06:33:46 06:39:49 22° 301° (WNW) 06:45:31 29.400- 29.500
VERMONT LUNAR 30 Mar 06:40:34 06:43:34 30° 353° (N) 06:46:35 437.305
STRAND 1 30 Mar 06:47:40 06:52:50 86° 256° (WSW) 06:58:01 437.568
DANDE 30 Mar 07:11:39 07:15:18 26° 79° (E) 07:20:01 436.750
CUBESAT XI-V 30 Mar 07:19:42 07:23:12 20° 267° (W) 07:26:33 437.345
CUTE-I 30 Mar 07:23:41 07:28:47 47° 287° (WNW) 07:33:50 437.470
Cubesat XI-IV 30 Mar 07:24:09 07:29:15 46° 288° (WNW) 07:34:17 437.490
PHONESAT 2.4 30 Mar 07:28:00 07:31:13 32° 352° (N) 07:34:27 2401.200-2431.200
CUSAT 1 30 Mar 07:58:49 08:03:27 75° 263° (W) 08:09:42 437.405
BRITE-PL 30 Mar 08:16:38 08:20:21 29° 97° (E) 08:24:17 437.365/2234.400
VERMONT LUNAR 30 Mar 08:18:40 08:21:46 33° 10° (N) 08:24:52 437.305
CANX-2 30 Mar 08:25:04 08:28:17 21° 94° (E) 08:31:38 2200.000
GONETS M04 30 Mar 08:32:30 08:38:19 19° 277° (W) 08:43:34
CUTE 1.7 + AOD 2 30 Mar 08:38:31 08:42:11 27° 96° (E) 08:45:53 437.475
DOVE 4 30 Mar 08:43:03 08:46:42 25° 96° (E) 08:50:35 437.250
DANDE 30 Mar 08:54:42 08:58:32 26° 263° (W) 09:03:14 436.750
BEESAT 2 30 Mar 08:56:09 08:59:06 20° 111° (ESE) 09:02:11 435.950
GOMX 1 30 Mar 08:58:14 09:02:30 59° 100° (E) 09:07:02 467.674
AAUSAT CUBESAT 2 30 Mar 08:59:27 09:03:03 27° 96° (E) 09:06:41 437.432
SEEDS 30 Mar 09:05:59 09:10:08 48° 99° (E) 09:14:17 437.485
PHONESAT 2.4 30 Mar 09:06:47 09:10:03 34° 10° (N) 09:13:21 2401.200-2431.200
UNISAT 6 30 Mar 09:13:08 09:14:31 12° 67° (ENE) 09:16:09 437.425
HO-68 30 Mar 09:17:47 09:25:00 76° 104° (ESE) 09:32:12 435.675
TIGRISAT 30 Mar 09:22:00 09:24:15 15° 68° (ENE) 09:26:42 435.000
COMPASS 1 30 Mar 09:26:53 09:31:08 72° 101° (E) 09:35:22 437.405
BEESAT 3 30 Mar 09:30:53 09:34:54 64° 117° (ESE) 09:38:59 437.485
Oscar 11 30 Mar 09:31:48 09:35:37 30° 96° (E) 09:39:29 145.826/435.025
QB50P1 30 Mar 09:39:40 09:41:03 12° 68° (ENE) 09:42:38 145.935-145.965
DUCHIFAT 1 30 Mar 09:40:56 09:42:19 12° 68° (ENE) 09:43:56 145.980
FUNcube-1 30 Mar 09:44:33 09:47:53 21° 94° (E) 09:51:23 145.935
UWE-3 30 Mar 09:50:54 09:54:54 32° 97° (E) 09:59:01 435.000/436.395/437.385
ANTELSAT 30 Mar 09:51:07 09:54:55 33° 73° (ENE) 09:58:48 437.575/2403.000
CINEMA 3 30 Mar 09:52:12 09:56:40 82° 100° (E) 10:01:22 145.822/145.860
QB50P2 30 Mar 09:53:22 09:56:07 18° 70° (ENE) 09:59:01 145.880/145.840
BRITE-PL 30 Mar 09:55:44 09:58:47 19° 289° (WNW) 10:01:48 437.365/2234.400
VERMONT LUNAR 30 Mar 09:56:17 09:59:38 73° 206° (SSW) 10:02:59 437.305
ZACube-1 30 Mar 09:57:22 10:01:16 30° 97° (E) 10:05:17 437.345
CUBEBUG 2 30 Mar 09:57:44 10:02:03 48° 99° (E) 10:06:32 437.445
CANX-2 30 Mar 10:00:33 10:04:14 27° 288° (WNW) 10:07:50 2200.000
AISAT 30 Mar 10:06:07 10:06:34 10° 90° (E) 10:07:21 437.250
DELFI C3 30 Mar 10:07:52 10:11:57 63° 101° (E) 10:15:59 145.870
AIST 2 30 Mar 10:12:38 10:16:42 49° 116° (ESE) 10:20:53 435.215
CUTE 1.7 + AOD 2 30 Mar 10:14:41 10:17:58 21° 289° (WNW) 10:21:09 437.475
BUGSAT 1 30 Mar 10:15:19 10:18:27 22° 71° (ENE) 10:21:40 437.445
POPSAT HIP 1 30 Mar 10:20:44 10:24:34 36° 73° (ENE) 10:28:27 437.405
DOVE 4 30 Mar 10:20:51 10:24:26 24° 288° (WNW) 10:28:02 437.250
NANOSAT C BR1 30 Mar 10:30:40 10:34:43 47° 75° (ENE) 10:38:47 145.865
BEESAT 2 30 Mar 10:33:25 10:37:05 30° 306° (NW) 10:40:44 435.950
AAUSAT CUBESAT 2 30 Mar 10:35:22 10:38:33 20° 289° (WNW) 10:41:36 437.432
POLYITAN 1 30 Mar 10:35:46 10:39:53 57° 75° (ENE) 10:44:03 437.675
ESTCUBE 1 30 Mar 10:37:52 10:39:36 12° 90° (E) 10:41:37 437.505/2401.250
UKube-1 30 Mar 10:38:17 10:42:34 62° 101° (E) 10:46:50 .
GOMX 1 30 Mar 10:39:26 10:40:20 10° 291° (WNW) 10:40:57 467.674
HUMSAT D 30 Mar 10:40:10 10:44:17 46° 99° (E) 10:48:26 437.325/437.525
SEEDS 30 Mar 10:43:44 10:45:34 12° 292° (WNW) 10:47:11 437.485
PHONESAT 2.4 30 Mar 10:45:03 10:48:35 76° 207° (SSW) 10:52:08 2401.200-2431.200
UNISAT 6 30 Mar 10:46:47 10:50:55 50° 261° (W) 10:55:07 437.425
DX 1 30 Mar 10:49:49 10:54:10 88° 283° (WNW) 10:58:30 434.975-435.025
TIGRISAT 30 Mar 10:56:44 11:00:43 39° 262° (W) 11:04:44 435.000
HO-68 30 Mar 11:07:16 11:12:04 19° 299° (WNW) 11:16:32 435.675
Oscar 11 30 Mar 11:08:25 11:11:39 20° 290° (WNW) 11:14:44 145.826/435.025
BEESAT 3 30 Mar 11:11:53 11:13:26 12° 314° (NW) 11:14:49 437.485
QB50P1 30 Mar 11:12:27 11:16:32 49° 260° (W) 11:20:39 145.935-145.965
DUCHIFAT 1 30 Mar 11:13:42 11:17:47 49° 261° (W) 11:21:52 145.980
50 SAT 30 Mar 11:14:31 11:18:34 80° 101° (E) 11:22:38 437.505
FUNcube-1 30 Mar 11:20:25 11:24:15 28° 287° (WNW) 11:28:03 145.935
UWE-3 30 Mar 11:28:00 11:31:15 20° 289° (WNW) 11:34:25 435.000/436.395/437.385
QB50P2 30 Mar 11:28:03 11:31:50 31° 263° (W) 11:35:36 145.880/145.840
ANTELSAT 30 Mar 11:29:03 11:31:52 17° 268° (W) 11:34:32 437.575/2403.000
CUBEBUG 1 30 Mar 11:31:05 11:35:15 46° 99° (E) 11:39:25 437.445
VELOX 1 30 Mar 11:34:04 11:38:27 67° 284° (WNW) 11:42:48 145.980
ZACube-1 30 Mar 11:34:10 11:37:29 20° 289° (WNW) 11:40:42 437.345
VERMONT LUNAR 30 Mar 11:35:44 11:36:59 11° 218° (SW) 11:38:06 437.305
CUBEBUG 2 30 Mar 11:36:07 11:38:27 14° 291° (WNW) 11:40:35 437.445
SPROUT 30 Mar 11:37:58 11:39:40 12° 91° (E) 11:41:38 437.525
AISAT 30 Mar 11:39:16 11:43:36 56° 285° (WNW) 11:47:54 437.250
Oscar 19 30 Mar 11:48:51 11:49:43 11° 64° (ENE) 11:50:57 437.125/150
BUGSAT 1 30 Mar 11:50:23 11:53:51 24° 264° (W) 11:57:13 437.445
AIST 2 30 Mar 11:53:04 11:55:38 15° 312° (NW) 11:58:05 435.215
POPSAT HIP 1 30 Mar 11:58:07 12:00:37 15° 268° (W) 12:02:57 437.405
JUGNU 30 Mar 12:06:50 12:07:52 10° 165° (SSE) 12:09:02 437.505
NANOSAT C BR1 30 Mar 12:09:34 12:10:55 11° 270° (W) 12:11:59 145.865
ESTCUBE 1 30 Mar 12:12:28 12:16:50 49° 286° (WNW) 12:21:09 437.505/2401.250
HUMSAT D 30 Mar 12:17:40 12:19:43 13° 291° (WNW) 12:21:33 437.325/437.525
PHONESAT 2.4 30 Mar 12:24:50 12:26:35 13° 218° (SW) 12:28:14 2401.200-2431.200
ITAMSAT 1 30 Mar 12:54:34 12:57:33 16° 66° (ENE) 13:00:47 435.822/435.867
TISAT 1 30 Mar 12:57:15 13:01:28 81° 284° (WNW) 13:05:39 437.305
PCSat 30 Mar 13:06:43 13:10:23 19° 107° (ESE) 13:14:15 145.827
CUBEBUG 1 30 Mar 13:09:13 13:11:17 13° 292° (WNW) 13:13:06 437.445
SPROUT 30 Mar 13:11:58 13:16:03 44° 286° (WNW) 13:20:07 437.525
YUBILEINY 30 Mar 13:15:37 13:24:13 63° 92° (E) 13:32:55 435.215
Oscar 19 30 Mar 13:23:23 13:28:29 79° 257° (WSW) 13:33:39 437.125/150
ITUPSAT 1 30 Mar 13:28:25 13:32:29 28° 96° (E) 13:36:37 437.325
AO-7 30 Mar 13:47:11 13:50:47 14° 54° (NE) 13:54:54 29.400- 29.500
Gurwin Techsat 1B 30 Mar 13:48:08 13:53:06 43° 72° (ENE) 13:58:08 435.225
JUGNU 30 Mar 13:52:21 13:56:12 18° 174° (S) 14:00:06 437.505
O/OREOS (USA 219) 30 Mar 14:03:01 14:07:34 75° 252° (WSW) 14:12:02 437.305
KKS-1 30 Mar 14:08:55 14:10:39 12° 91° (E) 14:12:40 437.445
SWISSCUBE 30 Mar 14:15:13 14:20:01 78° 284° (WNW) 14:24:46 437.505
BEESAT 30 Mar 14:17:57 14:22:45 79° 283° (WNW) 14:27:30 436.000
ITAMSAT 1 30 Mar 14:31:33 14:36:40 54° 260° (W) 14:41:47 435.822/435.867
STARS 30 Mar 14:37:13 14:39:57 17° 93° (E) 14:42:51 437.465
